Hourly Weather Roundup
Issued by NWS Central Illinois

Home | Current Version | Previous Version | Text Only | Print | Product List | Glossary Off
Versions: 1 2 3 4 5 6 7 8 9 10 11 12 13 14 15 16 17 18 19 20 21 22 23 24 25 26 27 28 29 30 31 32 33 34 35 36 37 38 39 40 41 42 43 44 45 46 47 48 49 50

000
NZUS43 KILX 101710
HWRILX

AREA WEATHER ROUNDUP
NATIONAL WEATHER SERVICE, LINCOLN IL
1100 AM CST WED FEB 10 2016


CITY           SKY/WX    TMP DP  RH WIND       PRES   REMARKS
BLOOMINGTON    MOSUNNY   16   3  56 W15       30.09S WCI   1
CHAMPAIGN      SUNNY     15   5  64 W14       30.09F WCI   0
DANVILLE       MOSUNNY   13   3  64 NW14      30.06F WCI  -2
DECATUR        MOSUNNY   17   4  56 W10       30.12S WCI   5
EFFINGHAM      CLOUDY    18   7  63 W8        30.16F WCI   8
FLORA          SUNNY     20   6  55 W8        30.17F WCI  10
GALESBURG      CLOUDY    14   4  64 W9        30.12S WCI   2
JACKSONVILLE   CLOUDY    19   8  61 W10       30.15S WCI   8
LACON          MOSUNNY   15   3  57 NW9       30.12R WCI   4
LAWRENCEVILLE  SUNNY     18   6  59 W14       30.17F WCI   4
LITCHFIELD     CLOUDY    18   5  57 W10       30.15S WCI   6
$$


CITY           SKY/WX    TMP DP  RH WIND       PRES   REMARKS
LINCOLN        CLOUDY    18   6  59 W6        30.13R WCI  10
MACOMB         CLOUDY    15   6  65 NW9       30.17R WCI   3
MATTOON        SUNNY     14   4  64 W8        30.11F WCI   3
MT CARMEL AP   SUNNY     21   5  49 NW14      30.17S WCI   8
OLNEY-NOBLE AP MOSUNNY   19   5  53 W9        30.17F WCI   9
PARIS          PTSUNNY   16   8  70 W14       30.11F WCI   2
PEORIA         MOSUNNY   16   2  54 NW9G18    30.13R WCI   4
PONTIAC        MOSUNNY   15   6  66 NW12G21   30.09S WCI   2
RANTOUL        SUNNY     16   7  65 W13G20    30.09S WCI   3
ROBINSON       SUNNY     17   6  61 W10       30.16F WCI   5
SPRINGFIELD    CLOUDY    17   6  62 W13       30.15S WCI   4
TAYLORVILLE    MOSUNNY   18   9  68 W15       30.15R WCI   3
$$

...REGIONAL REPORTS...


CITY           SKY/WX    TMP DP  RH WIND       PRES   REMARKS
CHICAGO O`HARE PTSUNNY   14   2  58 NW7       30.03S WCI   4
KANKAKEE       CLOUDY    15   3  59 NW8       30.08S WCI   4
MOLINE         MOSUNNY   14   1  56 W10       30.12S WCI   1
MOUNT STERLING CLOUDY    16   5  62 NW8       30.14R WCI   5
MOUNT VERNON   CLOUDY    19   7  58 W8        30.18F WCI   9
PITTSFIELD     PTSUNNY   19   7  60 W7        30.15F WCI  10
QUINCY         CLOUDY    17   6  62 W7        30.14S WCI   8
ROCKFORD       MOSUNNY   14   1  56 NW14      30.09R WCI  -1
$$


CITY           SKY/WX    TMP DP  RH WIND       PRES   REMARKS
BURLINGTON     CLOUDY    15   3  59 NW8       30.14R WCI   4
CEDAR RAPIDS   CLOUDY    11   1  64 NW6       30.10F WCI   1
DES MOINES     LGT SNOW  18  11  74 E7        30.09F WCI   9
KIRKSVILLE     LGT SNOW  19  14  81 S6        30.12S WCI  11
OTTUMWA        LGT SNOW  16  11  80 CALM      30.13R VSB 1
ST LOUIS       CLOUDY    23   6  48 W9        30.17F WCI  13
$$


CITY           SKY/WX    TMP DP  RH WIND       PRES   REMARKS
TERRE HAUTE    MOSUNNY   16   4  59 W10G17    30.12F WCI   4
EVANSVILLE     MOSUNNY   21   6  52 NW8       30.20S WCI  11
INDIANAPOLIS   PTSUNNY   14   5  67 W18       30.06R WCI  -3
LAFAYETTE      PTSUNNY   14   5  67 NW13      30.07S WCI   0
MADISON        PTSUNNY    9  -2  61 NW10      30.05R WCI  -5
MILWAUKEE      PTSUNNY   12  -2  53 NW12      30.02S WCI  -2
$$





USA.gov is the U.S. government's official web portal to all federal, state and local government web resources and services.